TOMORROW-S2 (60485 NORAD) Tracking and Keplerian Element Data

This shows tracking and keplerian element data for the satellite.

Feedback or suggestion? Click here.




ElementValue
Catalog60485
NameTOMORROW-S2
Epoch Orbit864
Epoch Day286.77450206
Epoch Year2024
RAAN1.446
Inclination97.4402
Eccentricity0.0002639
Argument of Perigee259.4892
Mean Anonmoly100.6045
Mean Motion15.19766247
Decay Rate0.00017662
L11 60485U 24149T 24286.77450206 .00017662 00000+0 82738-3 0 9998
L22 60485 97.4402 1.4460 0002639 259.4892 100.6045 15.19766247 8647



Live tracking and technical data element details for TOMORROW-S2 (NORAD 60485). TOMORROW-S2 can be tracked NOW for your location showing map with azimuth and elevation plus other details from your city location.







IsCatalogInMostPopularTable: catalog: 60485, numindb: 3
Update: records affected: 1



GetName: 60485 TOMORROW-S2

Hit Count: updated at: Wed, 04 Dec 2024 18:54:42 GMT